Location: Noordwijk
(52.2400°N, 4.4500°E)
Time: 08:20:39
(UTC+00:00)

First-Move - Visible Passes

Search period start: 04 March 2024 00:00
Search period end: 14 March 2024 00:00
Orbit: 543 x 615 km, 97.7° (Epoch: 03 March)

Date Brightness Start Highest point End Pass type
(mag) Time Alt. Az. Time Alt. Az. Time Alt. Az.
04 Mar ? 02:22:18 10° NE 02:23:23 15° NE 02:23:23 15° NE visible
04 Mar ? 03:57:10 10° N 03:59:42 32° NNW 03:59:42 32° NNW visible
05 Mar ? 02:26:47 10° NE 02:28:10 17° NE 02:28:10 17° NE visible
05 Mar ? 04:01:48 10° N 04:04:29 32° NNW 04:04:29 32° NNW visible
06 Mar ? 02:31:14 10° NE 02:32:54 19° NE 02:32:54 19° NE visible
06 Mar ? 04:06:23 10° N 04:09:13 32° NW 04:09:13 32° NW visible
07 Mar ? 02:35:38 10° NNE 02:37:34 22° ENE 02:37:34 22° ENE visible
07 Mar ? 04:10:55 10° N 04:13:53 30° NW 04:13:53 30° NW visible
08 Mar ? 02:40:00 10° NNE 02:42:12 25° ENE 02:42:12 25° ENE visible
08 Mar ? 04:15:24 10° N 04:18:30 29° NW 04:18:30 29° NW visible
09 Mar ? 02:44:19 10° NNE 02:46:46 28° ENE 02:46:46 28° ENE visible
09 Mar ? 04:19:50 10° N 04:23:04 27° WNW 04:23:04 27° WNW visible
10 Mar ? 02:48:35 10° NNE 02:51:17 32° ENE 02:51:17 32° ENE visible
10 Mar ? 04:24:13 10° N 04:27:26 25° WNW 04:27:35 25° WNW visible
11 Mar ? 02:52:48 10° NNE 02:55:45 37° ENE 02:55:45 37° ENE visible
11 Mar ? 04:28:34 10° N 04:31:40 23° WNW 04:32:03 22° WNW visible
12 Mar ? 02:56:59 10° NNE 03:00:10 43° ENE 03:00:10 43° ENE visible
12 Mar ? 04:32:51 10° NNW 04:35:51 21° WNW 04:36:28 20° WNW visible
13 Mar ? 03:01:07 10° NNE 03:04:31 49° ENE 03:04:31 49° ENE visible
13 Mar ? 04:37:06 10° NNW 04:39:58 20° WNW 04:40:49 18° WNW visible
